Wind_Speed
36 35 34 32 32 32 34 35 35 35 39 40 40 38 34 35 36 35 34 32 30 29 26 25 24 22 22 21 22 24 26 27 29 31 32 33 34 33 32 32 29 29 28 29
36 35 33 33 34 34 35 35 35 34 38 42 43 42 39 37 37 37 36 34 32 30 28 27 26 24 23 23 23 25 27 29 31 33 34 37 35 33 33 32 30 28 28 29
35 33 33 34 35 35 35 35 33 33 37 41 43 43 41 38 37 37 36 34 32 30 29 28 28 26 25 25 25 27 28 31 33 35 37 39 38 36 34 30 28 28 28 28
35 34 34 34 35 35 34 32 32 34 36 38 41 42 39 38 37 36 36 35 33 31 30 30 29 28 27 27 28 30 32 34 36 38 39 40 39 38 34 30 27 25 27 28
33 32 33 34 33 34 31 32 33 35 36 38 39 40 38 36 36 35 36 35 35 33 32 31 31 30 30 30 32 33 35 37 40 41 42 41 38 38 35 30 27 26 28 29
33 33 34 34 33 33 32 34 35 35 36 37 36 38 38 36 35 35 36 37 36 35 34 33 32 32 33 34 35 37 38 40 41 43 42 42 40 37 35 32 31 31 32 33
31 32 32 33 33 33 33 33 34 34 35 35 32 35 37 36 35 35 36 36 36 35 35 35 34 34 35 35 36 37 38 40 41 43 42 42 39 38 36 36 34 35 35 37
28 29 29 30 30 31 31 32 33 33 32 31 30 32 33 33 33 33 33 33 33 33 32 32 32 31 32 33 34 36 38 39 41 42 41 41 41 39 39 39 40 40 41 42
24 24 25 25 26 28 30 31 30 31 30 29 29 30 31 31 30 31 31 31 31 30 30 30 30 30 30 31 33 35 37 38 40 41 41 42 42 43 43 44 46 46 47 48
22 22 22 24 27 29 31 31 31 31 30 28 28 27 28 29 29 30 31 30 30 30 30 30 30 31 32 33 35 36 37 39 41 42 44 45 46 47 48 49 50 50 51 52
21 22 22 25 28 31 33 33 33 32 30 29 28 27 27 28 29 31 31 31 31 31 31 32 32 33 34 36 37 39 40 41 43 45 46 48 49 50 50 51 52 53 54 55
22 23 23 26 28 31 33 35 34 32 31 29 28 28 27 27 28 30 32 33 34 34 35 35 35 36 37 38 39 41 43 44 46 47 49 51 52 52 54 55 56 58 58 58
24 25 25 26 29 31 33 34 35 34 33 32 30 31 29 30 31 31 33 34 35 36 36 37 38 39 40 41 43 45 46 47 49 50 52 54 55 56 58 59 59 60 59 59
27 27 27 27 29 30 32 33 34 35 35 35 35 35 35 34 35 35 36 36 37 38 39 41 41 42 43 45 47 48 49 51 53 55 56 57 58 58 60 60 60 59 59 59
29 30 30 30 30 31 32 33 34 35 37 38 39 39 40 40 40 40 40 40 40 41 42 42 44 45 47 48 49 51 52 54 55 56 57 58 59 59 59 59 59 58 58 57
30 31 32 33 33 34 35 35 35 36 37 39 40 40 40 41 41 42 43 43 43 43 44 45 45 47 49 51 52 53 54 55 56 57 57 58 57 57 57 57 57 56 55 54
29 32 33 35 36 37 37 37 37 38 38 39 40 40 41 41 41 40 41 41 41 42 43 45 46 48 49 51 54 55 55 55 55 55 55 55 55 55 54 54 53 52 51 50
28 30 32 34 35 37 37 37 38 38 38 38 38 38 38 38 37 38 39 40 42 44 45 46 47 49 51 52 52 53 53 53 53 53 52 52 51 51 51 50 49 48 48 48
25 27 29 31 33 34 34 34 34 34 35 36 37 37 38 38 38 38 39 39 40 42 43 45 47 48 50 50 51 51 51 50 50 49 49 48 47 47 47 46 46 46 46 47
23 24 26 27 28 29 29 29 29 31 32 32 34 35 35 34 35 35 36 38 39 41 43 44 45 46 47 48 48 48 47 46 46 45 44 44 44 43 43 44 44 44 45 46
20 21 22 23 24 24 24 24 25 26 27 28 30 31 32 33 34 34 35 37 38 40 41 42 43 43 44 44 44 43 42 42 41 40 40 40 41 41 41 42 43 44 45 45
18 18 18 19 20 20 21 22 22 23 23 24 26 28 29 31 32 33 34 35 36 37 38 38 39 40 39 39 38 37 37 36 36 36 37 37 38 39 40 41 42 43 43 42
16 16 16 16 16 16 17 18 19 20 21 22 24 25 26 28 29 30 31 32 33 33 34 34 34 34 34 33 33 33 33 33 34 34 35 37 38 39 40 40 41 40 39 38
14 14 14 14 15 15 16 16 17 18 19 20 21 22 23 24 25 26 27 28 28 29 29 29 29 28 28 29 29 30 30 31 33 34 35 37 38 39 39 39 38 36 34 32
14 13 13 13 14 15 16 16 16 17 18 19 19 20 21 22 23 24 24 25 24 24 24 24 24 24 25 25 26 27 29 31 33 35 36 37 37 37 35 34 32 29 27 24
13 12 12 13 13 14 15 15 16 17 17 18 18 19 19 20 20 20 20 20 19 19 19 20 20 21 22 23 25 27 30 32 34 35 35 34 33 31 29 27 25 22 20 18
Wind_Direction
241 241 240 239 239 238 237 235 233 233 236 242 247 250 250 253 258 261 263 264 264 264 263 265 268 273 280 287 292 298 301 302 301 301 299 297 292 289 286 283 280 280 278 279
241 241 239 237 236 236 237 237 235 232 234 239 244 249 251 253 255 259 262 264 265 263 263 264 267 271 276 282 287 292 296 297 298 297 295 294 290 289 289 288 286 286 284 286
240 239 237 237 237 237 237 238 237 234 233 239 244 248 250 252 254 257 260 262 263 263 263 264 265 267 271 277 284 288 291 292 293 293 290 290 289 290 292 291 293 290 288 290
236 235 234 235 235 237 238 238 238 236 235 239 244 247 248 251 252 255 258 260 262 262 262 261 262 264 270 277 282 286 288 289 289 288 286 285 289 293 293 293 295 295 296 296
234 234 234 233 234 236 237 236 237 237 238 240 244 249 250 250 252 253 256 258 259 260 260 261 264 267 271 277 280 283 285 285 287 285 284 287 291 295 295 294 297 302 303 302
231 231 231 231 231 233 232 234 237 238 240 242 243 250 254 253 253 254 255 257 259 260 262 263 266 269 272 276 278 280 282 283 285 285 287 292 296 299 300 301 304 306 306 305
229 231 231 231 230 231 231 232 235 238 241 243 244 249 253 254 254 254 254 255 258 260 261 264 267 269 271 272 273 276 278 280 285 288 292 298 300 302 304 306 307 306 305 303
229 229 231 231 232 232 230 231 234 238 241 244 245 248 251 253 252 252 253 254 256 259 262 264 266 267 269 270 271 273 276 280 285 290 294 299 304 305 305 308 309 308 307 303
229 227 227 227 226 226 228 230 234 239 241 243 244 246 248 249 250 250 251 252 255 257 260 262 264 266 268 269 271 275 279 284 288 291 296 301 303 304 304 305 306 306 304 302
228 225 220 221 221 223 226 228 232 237 241 242 244 245 248 248 248 248 250 252 254 256 259 262 264 266 269 272 275 278 282 286 289 294 296 298 301 302 303 304 304 303 302 300
232 229 218 219 220 221 225 229 234 238 240 243 245 247 248 251 251 251 252 254 257 259 261 264 267 270 273 276 279 282 285 289 292 294 295 297 299 300 302 302 303 302 301 299
237 235 225 220 221 224 228 232 235 238 240 242 247 250 251 254 255 256 257 259 261 264 266 268 270 273 276 278 281 284 288 290 291 292 294 296 298 299 300 301 302 302 301 299
245 244 237 230 229 229 232 235 238 240 243 245 247 251 253 256 258 259 260 263 265 266 268 270 272 275 277 280 283 286 287 288 290 292 294 296 297 298 299 300 300 300 299 298
249 249 245 241 239 239 240 241 242 244 245 247 248 250 251 254 257 259 261 263 265 267 269 271 274 276 279 282 284 286 288 290 291 293 294 296 297 298 299 299 299 298 297 297
253 253 250 248 246 245 245 246 247 248 249 250 249 250 251 252 254 258 260 263 265 267 269 272 275 278 281 283 286 289 291 293 294 296 296 297 297 298 297 298 298 297 296 296
254 254 254 252 251 250 248 247 250 252 254 255 255 254 255 256 256 258 261 264 266 269 273 275 278 281 285 287 290 293 295 296 297 297 297 297 297 297 297 297 297 296 296 295
259 256 255 255 254 254 253 252 254 256 258 260 260 261 261 262 264 265 267 269 272 274 278 281 284 287 289 292 295 296 296 296 296 296 296 296 296 296 296 296 296 295 295 294
263 262 261 261 260 257 257 256 258 260 262 264 267 269 270 270 271 272 272 273 276 279 282 284 287 291 293 295 295 296 296 296 296 295 295 296 296 296 296 296 295 295 294 293
268 265 264 264 266 267 266 265 265 264 266 268 270 272 273 275 275 275 275 277 280 282 285 288 290 293 294 295 295 295 295 295 295 296 296 296 296 296 296 295 295 295 294 295
270 269 268 268 269 270 269 268 267 267 266 267 268 269 270 272 273 275 277 279 282 284 286 288 290 292 293 293 294 294 295 295 296 296 296 296 296 296 296 296 296 296 296 296
271 271 270 269 270 271 270 270 269 267 266 265 265 267 268 269 272 274 276 279 282 284 286 288 290 291 292 293 294 295 296 297 297 297 297 297 297 297 297 297 297 297 297 297
270 271 271 270 271 270 270 269 266 267 266 265 266 267 268 269 271 273 276 280 283 285 287 289 290 291 293 294 295 296 297 298 298 299 299 299 299 299 299 299 299 299 299 299
271 269 269 267 267 268 266 264 265 266 267 266 267 268 269 271 273 276 279 283 285 286 288 290 292 293 294 295 297 298 299 300 301 301 302 302 302 302 302 302 301 301 301 300
274 270 268 267 265 264 266 268 266 265 266 266 268 270 273 274 276 279 281 284 286 287 289 291 293 295 296 298 299 301 302 303 304 305 305 305 305 305 304 304 304 304 303 303
274 271 270 268 268 268 269 268 267 267 267 268 270 271 273 275 277 280 283 285 287 289 292 295 297 299 300 302 304 306 307 307 308 308 308 308 308 307 307 307 307 307 307 307
274 272 273 274 270 266 267 269 270 271 270 270 271 272 274 277 279 281 284 286 289 293 296 298 301 304 306 308 310 311 312 312 312 312 312 312 311 311 311 312 313 313 314 315
Height
5805 5809 5813 5817 5820 5823 5826 5829 5833 5837 5838 5838 5839 5842 5846 5848 5848 5850 5851 5852 5854 5856 5858 5859 5860 5861 5861 5861 5861 5860 5858 5856 5853 5851 5848 5845 5842 5838 5836 5833 5831 5831 5830 5828
5799 5803 5807 5809 5812 5815 5818 5822 5826 5831 5832 5832 5833 5835 5839 5842 5843 5845 5846 5847 5848 5850 5851 5853 5854 5855 5856 5856 5855 5854 5852 5850 5848 5845 5842 5839 5835 5830 5828 5826 5824 5823 5823 5821
5792 5797 5800 5802 5805 5809 5812 5815 5819 5823 5824 5824 5826 5829 5833 5836 5837 5839 5840 5841 5842 5843 5845 5847 5848 5848 5849 5849 5848 5848 5846 5844 5842 5839 5835 5831 5827 5823 5820 5819 5818 5816 5815 5814
5784 5789 5792 5795 5799 5802 5806 5809 5811 5813 5816 5817 5819 5821 5826 5829 5831 5833 5834 5834 5835 5837 5838 5840 5841 5841 5842 5842 5841 5841 5839 5837 5835 5832 5829 5824 5820 5816 5813 5811 5810 5809 5808 5807
5779 5783 5786 5789 5793 5795 5799 5801 5803 5805 5808 5811 5813 5815 5820 5823 5825 5827 5827 5828 5829 5830 5832 5833 5834 5835 5835 5835 5834 5834 5832 5829 5827 5824 5821 5816 5812 5808 5806 5804 5803 5802 5801 5799
5772 5776 5779 5783 5786 5788 5791 5793 5796 5798 5801 5805 5808 5810 5813 5816 5818 5820 5820 5821 5822 5823 5825 5826 5827 5828 5828 5828 5827 5826 5825 5822 5819 5816 5812 5809 5805 5801 5799 5797 5795 5794 5793 5792
5767 5770 5773 5776 5779 5782 5785 5788 5790 5793 5796 5800 5803 5804 5807 5808 5810 5812 5813 5814 5814 5816 5817 5819 5820 5821 5821 5820 5820 5819 5817 5814 5812 5809 5805 5801 5798 5795 5793 5790 5788 5787 5785 5783
5761 5766 5769 5771 5775 5777 5780 5783 5786 5789 5791 5794 5797 5798 5801 5801 5803 5804 5806 5806 5808 5809 5810 5811 5812 5813 5813 5813 5812 5811 5809 5807 5805 5801 5797 5794 5791 5788 5785 5782 5781 5779 5778 5775
5757 5761 5764 5767 5770 5773 5775 5778 5781 5784 5786 5788 5790 5792 5794 5795 5796 5798 5799 5800 5801 5803 5804 5805 5806 5806 5806 5806 5805 5803 5801 5799 5797 5793 5790 5786 5783 5781 5777 5775 5772 5770 5768 5765
5752 5756 5759 5762 5765 5768 5771 5774 5776 5778 5780 5782 5784 5787 5788 5789 5791 5792 5794 5795 5796 5797 5798 5799 5799 5799 5799 5798 5797 5795 5793 5791 5788 5784 5781 5778 5776 5773 5769 5766 5763 5760 5757 5753
5748 5751 5754 5757 5759 5762 5765 5768 5770 5772 5775 5777 5779 5783 5783 5784 5785 5786 5788 5789 5790 5791 5791 5792 5792 5791 5790 5789 5788 5786 5784 5781 5779 5776 5772 5769 5766 5763 5759 5756 5752 5748 5745 5741
5745 5747 5749 5752 5754 5756 5758 5761 5764 5767 5769 5772 5774 5779 5777 5778 5779 5780 5781 5782 5783 5784 5784 5784 5783 5783 5782 5781 5779 5777 5775 5772 5769 5766 5763 5759 5755 5751 5748 5744 5739 5735 5731 5726
5740 5743 5745 5747 5751 5751 5752 5754 5757 5760 5763 5765 5768 5773 5771 5772 5773 5774 5774 5775 5775 5776 5776 5775 5775 5774 5773 5772 5770 5768 5765 5763 5760 5756 5752 5749 5744 5740 5736 5731 5726 5722 5717 5712
5735 5736 5740 5742 5744 5745 5747 5749 5751 5754 5756 5759 5761 5763 5764 5765 5765 5766 5766 5767 5767 5767 5766 5766 5765 5764 5763 5762 5760 5758 5755 5752 5748 5745 5740 5736 5732 5727 5722 5717 5712 5707 5702 5697
5728 5729 5731 5734 5736 5738 5740 5742 5744 5747 5748 5751 5753 5754 5755 5756 5757 5757 5757 5757 5757 5757 5757 5756 5755 5754 5753 5751 5749 5746 5743 5740 5736 5732 5727 5723 5718 5713 5708 5703 5698 5693 5688 5683
5721 5722 5724 5726 5727 5729 5732 5734 5736 5738 5740 5742 5744 5746 5747 5747 5748 5748 5748 5748 5747 5747 5746 5746 5745 5743 5741 5739 5736 5733 5730 5726 5722 5718 5714 5709 5704 5699 5694 5688 5683 5678 5673 5668
5713 5715 5717 5718 5719 5721 5724 5727 5728 5730 5731 5733 5735 5737 5737 5737 5738 5738 5738 5738 5737 5736 5736 5735 5733 5731 5729 5726 5723 5720 5716 5713 5708 5704 5699 5695 5690 5685 5679 5674 5669 5665 5660 5655
5707 5707 5709 5710 5712 5714 5718 5718 5720 5721 5722 5724 5725 5726 5727 5728 5728 5728 5728 5727 5727 5726 5725 5723 5721 5719 5716 5713 5710 5707 5703 5699 5695 5690 5685 5680 5676 5671 5666 5661 5656 5652 5647 5643
5700 5701 5701 5703 5703 5705 5708 5709 5711 5712 5714 5715 5716 5717 5718 5718 5718 5718 5718 5717 5717 5715 5714 5712 5710 5707 5704 5701 5697 5694 5690 5685 5681 5676 5671 5667 5662 5657 5653 5648 5644 5639 5635 5631
5693 5694 5696 5696 5697 5698 5701 5701 5702 5704 5706 5707 5708 5708 5709 5709 5710 5710 5708 5708 5707 5705 5703 5701 5699 5696 5693 5689 5686 5682 5677 5673 5668 5663 5659 5654 5650 5645 5641 5636 5632 5628 5623 5619
5688 5688 5689 5689 5690 5691 5693 5693 5695 5698 5699 5698 5699 5699 5700 5700 5701 5700 5699 5698 5697 5695 5693 5691 5688 5685 5682 5678 5674 5670 5665 5661 5656 5652 5647 5643 5638 5634 5630 5625 5621 5616 5612 5607
5683 5683 5684 5684 5685 5688 5686 5687 5689 5690 5690 5690 5691 5691 5692 5692 5691 5691 5690 5689 5688 5686 5683 5681 5678 5675 5672 5668 5664 5660 5655 5651 5646 5642 5637 5633 5628 5624 5619 5614 5609 5604 5600 5595
5678 5679 5679 5680 5682 5681 5680 5681 5682 5683 5683 5683 5684 5684 5684 5684 5684 5683 5682 5681 5679 5677 5675 5672 5669 5666 5662 5659 5655 5651 5646 5642 5637 5633 5628 5623 5618 5613 5608 5603 5598 5593 5588 5584
5675 5674 5675 5675 5676 5676 5676 5676 5677 5677 5677 5677 5677 5677 5678 5677 5677 5676 5675 5673 5671 5669 5667 5664 5661 5658 5655 5651 5647 5643 5638 5634 5629 5624 5619 5614 5608 5603 5598 5593 5588 5583 5578 5574
5671 5671 5671 5672 5672 5672 5672 5672 5672 5672 5672 5671 5671 5671 5671 5671 5670 5669 5668 5666 5665 5663 5660 5658 5655 5651 5648 5644 5640 5635 5631 5626 5621 5616 5610 5604 5598 5593 5588 5583 5578 5574 5570 5567
5667 5668 5668 5668 5668 5668 5668 5667 5667 5666 5666 5666 5666 5666 5665 5665 5664 5663 5662 5661 5659 5657 5655 5652 5649 5646 5642 5638 5634 5629 5624 5618 5613 5607 5601 5595 5589 5584 5579 5575 5571 5567 5564 5561